Tracking 26492 objects as of 8-Dec-2022
HD Live streaming from Space Station
objects crossing your sky now

STARLINK-4550

Track STARLINK-4550 now!
10-day predictions
STARLINK-4550 is classified as:


NORAD ID: 53570
Int'l Code: 2022-101AV
Perigee: 546.1 km
Apogee: 547.7 km
Inclination: 53.2 °
Period: 95.4 minutes
Semi major axis: 6917 km
RCS: Unknown
Launch date: August 19, 2022
Source: United States (US)
Launch site: AIR FORCE EASTERN TEST RANGE (AFETR)
aabbcc
Your satellite tracking list
Your tracking list is empty




NASA's NSSDC Master Catalog

Two Line Element Set (TLE):
1 53570U 22101AV  22341.72151192 -.00000586  00000-0 -18735-4 0  9995
2 53570  53.2164 347.0194 0001137  31.5469 328.5591 15.08841515 17796
Source of the keplerian elements: AFSPC